Valdosta, GA

8:15 PM EDT on April 28, 2017 (GMT -0400)
Moody Air Force Base

Weather History for KVAD - March, 2013

Change the Weather History Date:

Sunday, March 10, 2013

  Actual Average Record
Temperature  
Mean Temperature 62 °F -  
Max Temperature 77 °F 69 °F 86 °F (2015)
Min Temperature 48 °F 47 °F 37 °F (1998)
Degree Days  
Heating Degree Days 2    
Growing Degree Days 12 (Base 50)    
Moisture  
Dew Point 49 °F    
Average Humidity 61    
Maximum Humidity 97    
Minimum Humidity 36    
Precipitation  
Precipitation 0.00 in - - ()
Sea Level Pressure  
Sea Level Pressure 30.15 in    
Wind  
Wind Speed 8 mph (ESE)    
Max Wind Speed 15 mph    
Max Gust Speed 22 mph    
Visibility 10 miles    
Events Rain    
Averages and records for this station are not official NWS values.
T = Trace of Precipitation, MM = Missing Value Source: NWS Daily Summary

Daily Weather History Graph

Daily Weather History Graph

Search for Another Location

Airport or City:

Trip Planner

Search our weather history database for the weather conditions in past years. The results will help you decide how hot, cold, wet, or windy it might be!

Date:

Astronomy

Mar. 10, 2013 Rise Set
Actual Time 7:48 AM EDT 7:37 PM EDT
Civil Twilight 7:24 AM EDT 8:01 PM EDT
Nautical Twilight 6:56 AM EDT 8:29 PM EDT
Astronomical Twilight 6:28 AM EDT 8:58 PM EDT
Moon 6:45 AM EDT (3/10) 6:45 PM EDT (3/10)
Length of Visible Light 12h 37m
Length of Day
11h 49m
Waning Crescent, 2% of the Moon is Illuminated
Mar 10
Waning Crescent
Mar 11
New
Mar 19
First Quarter
Mar 27
Full
Apr 3
Last Quarter

Hourly Weather History & Observations

Time (EDT) Temp. Dew Point Humidity Pressure Visibility Wind Dir Wind Speed Gust Speed Precip Events Conditions
12:58 AM 50.2 °F 41.5 °F 72% 30.22 in 10.0 mi East 8.1 mph - N/A   Mostly Cloudy
1:58 AM 49.1 °F 43.0 °F 79% 30.21 in 10.0 mi East 6.9 mph - N/A   Overcast
3:58 AM 49.3 °F 44.6 °F 84% 30.19 in 10.0 mi East 6.9 mph - N/A   Mostly Cloudy
4:58 AM 49.6 °F 46.4 °F 89% 30.18 in 10.0 mi East 8.1 mph - N/A   Overcast
5:58 AM 49.8 °F 47.3 °F 91% 30.19 in 10.0 mi ESE 5.8 mph - N/A   Overcast
6:58 AM 48.7 °F 47.1 °F 94% 30.22 in 10.0 mi NNE 2.3 mph - N/A   Overcast
7:58 AM 49.3 °F 48.4 °F 97% 30.22 in 10.0 mi East 9.2 mph - N/A   Overcast
8:58 AM 52.7 °F 48.9 °F 87% 30.19 in 10.0 mi East 8.1 mph - N/A   Partly Cloudy
9:58 AM 58.8 °F 50.4 °F 73% 30.20 in 10.0 mi ESE 8.1 mph - N/A   Overcast
10:58 AM 64.8 °F 51.4 °F 62% 30.19 in 10.0 mi SSE 8.1 mph - N/A   Clear
11:58 AM 69.4 °F 51.4 °F 53% 30.18 in 10.0 mi SE 15.0 mph - N/A   Partly Cloudy
12:58 PM 72.5 °F 50.2 °F 45% 30.16 in 10.0 mi SE 12.7 mph 21.9 mph N/A   Clear
1:58 PM 74.8 °F 49.8 °F 41% 30.15 in 10.0 mi SSE 10.4 mph 17.3 mph N/A   Clear
2:06 PM 75.2 °F 50.0 °F 41% 30.14 in 10.0 mi SSE 12.7 mph 20.7 mph N/A   Clear
2:10 PM 75.2 °F 50.0 °F 41% 30.14 in 10.0 mi SE 13.8 mph 20.7 mph N/A   Clear
2:58 PM 75.9 °F 48.9 °F 38% 30.13 in 10.0 mi SE 10.4 mph - N/A   Clear
3:58 PM 76.1 °F 49.3 °F 39% 30.11 in 10.0 mi Variable 3.5 mph - N/A   Partly Cloudy
4:37 PM 77.0 °F 48.2 °F 36% 30.10 in 10.0 mi South 9.2 mph - N/A Rain Light Rain
4:46 PM 77.0 °F 48.2 °F 36% 30.10 in 10.0 mi SE 6.9 mph - N/A   Scattered Clouds
4:58 PM 77.2 °F 48.9 °F 37% 30.10 in 10.0 mi ESE 5.8 mph 18.4 mph 0.00 in   Scattered Clouds
5:58 PM 77.2 °F 50.5 °F 39% 30.09 in 10.0 mi SE 10.4 mph - N/A   Mostly Cloudy
6:58 PM 74.1 °F 52.2 °F 46% 30.10 in 10.0 mi East 11.5 mph - N/A   Scattered Clouds
7:58 PM 68.9 °F 52.9 °F 57% 30.10 in 10.0 mi East 6.9 mph - N/A   Partly Cloudy
8:58 PM 66.9 °F 52.9 °F 61% 30.11 in 10.0 mi East 11.5 mph - N/A   Clear
9:58 PM 64.6 °F 52.0 °F 64% 30.13 in 10.0 mi ESE 13.8 mph - N/A   Clear
10:58 PM 61.9 °F 51.6 °F 69% 30.14 in 10.0 mi SE 5.8 mph - N/A   Clear
11:58 PM 60.3 °F 51.4 °F 73% 30.14 in 10.0 mi ESE 8.1 mph - N/A   Clear
12:58 AM 58.3 °F 51.4 °F 78% 30.13 in 10.0 mi ESE 4.6 mph - N/A   Clear